www.pogodaiklimat.ru

Погода и климат >> Архив погоды >> Пакистан >> Karachi


АРХИВ ПОГОДЫ в Karachi

Время (UTC), дата Ветер
(напр.,м/с)
 
Видим.   Явления Облачность Т
(С)
Тd
(С)
f
(%)
Тe
(С)
Тes
(С)
Комфортность P
(гПа)
Po
(гПа)
Тmin
(С)
Tmax
(С)
R
(мм)
R24
(мм)
S
(см)
03 14.06 ЮЗ 4 4000 м дым 9/6 200 м
[St Ac trans]
+31.0 +24.6 69 +44 +45 опасность
перегрева
999.8 997.1 +29.1
06 14.06 ЮЗ 8 4000 м мгла 6/6 600 м
[St]
+33.0 +23.0 56 +43 +44 опасность
перегрева
1000.3 997.7
09 14.06 ЮЗ 9 4000 м мгла 6/6 600 м
[St]
+34.0 +23.3 54 +45 +45 опасность
перегрева
998.9 996.3
12 14.06 ЮЗ 10 4000 м мгла 8/8 600 м
[St]
+32.0 +24.2 63 +44 +44 опасность
перегрева
997.9 995.3 +34.5
15 14.06 ЮЗ 8 4000 м мгла 8/8 600 м
[St]
+30.5 +24.9 72 +44 +44 опасность
перегрева
998.3 995.6
18 14.06 ЮЗ 5 4000 м мгла 6/6 600 м
[St]
+30.0 +25.1 75 +43 +43 опасность
перегрева
999.5 996.8
21 14.06 ЮЗ 7 4000 м мгла 6/6 600 м
[St]
+30.0 +25.1 75 +43 +43 опасность
перегрева
998.9 996.2
00 15.06 ЮЗ 6 4000 м мгла 6/6 600 м
[St]
+29.5 +25.3 78 +43 +43 опасность
перегрева
998.3 995.6
03 15.06 З 6 4000 м слабая морось 9/5 600 м
[St Ac trans]
+30.0 +25.8 78 +45 +45 опасность
перегрева
999.8 997.1 +29.0 0.0
06 15.06 ЮЗ 8 4000 м мгла 9/5 600 м
[St Ac trans]
+32.0 +25.0 67 +46 +47 опасность
перегрева
1000.1 997.5 0.0
09 15.06 ЮЗ 3 4000 м мгла 9/6 200 м
[St Ac trans]
+33.0 +25.3 64 +47 +51 опасность
перегрева
999.4 996.8
12 15.06 ЮЗ 8 4000 м мгла 9/4 600 м
[St]
+32.0 +25.0 67 +46 +46 опасность
перегрева
998.3 995.7 +33.5
15 15.06 ЮЗ 7 4000 м мгла 8/8 600 м
[St]
+30.5 +24.9 72 +44 +44 опасность
перегрева
999.3 996.6
18 15.06 ЮЗ 7 4000 м мгла 5/5 600 м
[St]
+30.0 +25.8 78 +45 +45 опасность
перегрева
1000.8 998.1 0.0
21 15.06 ЮЗ 5 4000 м мгла 6/6 600 м
[St]
+30.0 +25.8 78 +45 +45 опасность
перегрева
1000.0 997.3
00 16.06 ЮЗ 3 4000 м мгла 6/6 200 м
[St]
+29.5 +26.0 81 +44 +44 опасность
перегрева
999.8 997.1
03 16.06 ЮЗ 4 4000 м дым 8/6 600 м
[St]
+30.5 +26.4 79 +47 +48 опасность
перегрева
1001.3 998.6 +29.0
06 16.06 ЮЗ 6 4000 м мгла 9/9 600 м
[St]
+33.0 +24.6 61 +46 +46 опасность
перегрева
1001.7 999.1
09 16.06 ЮЗ 6 4000 м мгла 8/6 600 м
[St]
+34.5 +24.7 57 +48 +50 опасность
перегрева
1000.7 998.0
12 16.06 ЮЗ 7 4000 м 8/8 600 м
[St]
+33.0 +25.3 64 +47 +48 опасность
перегрева
999.2 996.6 +35.2
15 16.06 ЮЗ 6 4000 м 8/8 600 м
[St]
+30.5 +25.6 75 +45 +45 опасность
перегрева
999.6 996.9
18 16.06 ЮЗ 7 4000 м 6/6 600 м
[St]
+30.5 +25.6 75 +45 +45 опасность
перегрева
1000.8 998.1
21 16.06 ЮЗ 3 4000 м 8/8 200 м
[St]
+30.0 +25.8 78 +45 +45 опасность
перегрева
1000.0 997.3
00 17.06 ЮЗ 4 4000 м 8/8 200 м
[St]
+29.5 +26.0 81 +44 +44 опасность
перегрева
999.9 997.2
03 17.06 З 5 4000 м 6/6 600 м
[St]
+30.5 +25.6 75 +45 +46 опасность
перегрева
1000.6 997.9 +28.6
06 17.06 ЮЗ 5 4000 м мгла 9/6 600 м
[St]
+32.0 +25.0 67 +46 +48 опасность
перегрева
1001.5 998.9
09 17.06 ЮЗ 3 4000 м мгла 9/6 300 м
[St]
+33.5 +24.4 59 +46 +50 опасность
перегрева
1000.0 997.4
12 17.06 ЮЗ 3 4000 м 6/6 200 м
[St]
+32.5 +24.0 61 +44 +46 опасность
перегрева
998.4 995.8 +34.5
15 17.06 ЮЗ 3 4000 м 8/8 200 м
[St]
+30.5 +24.9 72 +44 +44 опасность
перегрева
999.0 996.3
18 17.06 ЮЗ 4 4000 м 8/8 200 м
[St]
+30.5 +25.6 75 +45 +45 опасность
перегрева
999.8 997.1
21 17.06 ЮЗ 3 4000 м 6/6 200 м
[St]
+30.0 +25.8 78 +45 +45 опасность
перегрева
998.6 995.9
00 18.06 ЮЗ 4 4000 м 8/8 200 м
[St]
+29.5 +26.0 81 +44 +44 опасность
перегрева
998.1 995.4
03 18.06 ЮЗ 7 4000 м мгла 8/8 600 м
[St]
+30.5 +25.6 75 +45 +45 опасность
перегрева
1000.0 997.3 +28.7
06 18.06 ЮЗ 5 4000 м мгла 8/8 600 м
[St]
+33.0 +25.3 64 +47 +49 опасность
перегрева
1001.0 998.4
09 18.06 ЮЗ 6 4000 м мгла 6/6 600 м
[St]
+34.5 +25.5 60 +49 +52 опасность
перегрева
1000.3 997.7
12 18.06 ЮЗ 6 4000 м 5/5 600 м
[St]
+33.0 +24.6 61 +46 +47 опасность
перегрева
998.7 996.1 +35.0
15 18.06 ЮЗ 6 4000 м 5/5 600 м
[St]
+30.5 +25.6 75 +45 +45 опасность
перегрева
999.7 997.0
18 18.06 ЮЗ 2 4000 м 5/5 600 м
[St]
+30.0 +25.8 78 +45 +45 опасность
перегрева
1001.6 998.9
21 18.06 ЮЗ 2 4000 м 4/4 200 м
[St]
+29.5 +25.3 78 +43 +43 опасность
перегрева
1000.2 997.5
00 19.06 ЮЗ 2 4000 м 5/5 200 м
[St]
+29.5 +25.3 78 +43 +43 опасность
перегрева
1000.2 997.5
03 19.06 ЮЗ 5 4000 м 6/6 600 м
[St]
+30.5 +25.6 75 +45 +46 опасность
перегрева
1001.8 999.1 +28.5
06 19.06 ЮЗ 2 4000 м мгла 3/3 200 м
[St]
+34.5 +25.5 60 +49 +63 опасность
перегрева
1001.4 998.8
09 19.06 ЮЗ 3 4000 м ясно +35.0 +25.3 57 +49 +65 опасность
перегрева
1000.8 998.2
12 19.06 ЮЗ 4 4000 м мгла 4/4 200 м
[St]
+33.0 +26.1 67 +49 +51 опасность
перегрева
1000.4 997.8 +35.5
15 19.06 ЮЗ 6 4000 м мгла 8/8 600 м
[St]
+30.5 +25.6 75 +45 +45 опасность
перегрева
1000.6 997.9
18 19.06 ЮЗ 4 4000 м 6/6 200 м
[St]
+30.0 +25.8 78 +45 +45 опасность
перегрева
1001.4 998.7
21 19.06 ЮЗ 3 4000 м 6/6 200 м
[St]
+30.0 +25.1 75 +43 +43 опасность
перегрева
1000.6 997.9
00 20.06 ЮЗ 3 4000 м 6/6 200 м
[St]
+29.5 +25.3 78 +43 +43 опасность
перегрева
1000.3 997.6
03 20.06 ЮЗ 3 4000 м 8/8 200 м
[St]
+31.0 +25.4 72 +45 +46 опасность
перегрева
1001.3 998.6 +29.1
06 20.06 ЮЗ 5 4000 м мгла 8/8 600 м
[St]
+33.0 +25.3 64 +47 +49 опасность
перегрева
1001.9 999.3
09 20.06 ЮЗ 8 4000 м 5/5 600 м
[St]
+34.0 +25.7 62 +49 +51 опасность
перегрева
1001.5 999.0
12 20.06 ЮЗ 6 4000 м 5/5 600 м
[St]
+33.0 +25.3 64 +47 +48 опасность
перегрева
1001.0 998.5 +34.5
15 20.06 ЮЗ 6 4000 м 6/6 600 м
[St]
+30.5 +25.6 75 +45 +45 опасность
перегрева
1000.1 997.4
18 20.06 ЮЗ 7 4000 м 6/6 600 м
[St]
+30.5 +25.8 76 +45 +45 опасность
перегрева
1001.3 998.6

 

Местоположение метеостанции Karachi (Пакистан): широта 24.90 долгота 67.13 высота над уровнем моря 22 м.

В архиве по умолчанию представлена погода в Karachi за последнюю неделю. Архивные данные за месяц целиком и за предыдущие месяцы, начиная с января 2011 года, Вы можете получить, выбрав интересующий диапазон дат из раскрывающегося списка и нажав кнопку "Ввод!".


*Определитесь, кто Вы:
робот инопланетянин человек

Внимание! Время в таблицах - всемирное. Для получения местного времени необходимо прибавить поправку, которая в Karachi равна 5 ч.

Смотрите также архив погоды в соседних городах и на ближайших метеорологических станциях:

Погода в Sakrand (Пакистан) (118 км)
Погода в Hyderabad (Пакистан) (140 км)
Погода в Badin (Пакистан) (181 км)
Погода в Nawabshah (Пакистан) (195 км)
Погода в Pad Idan (Пакистан) (239 км)
Погода в Naliya (Gujarat, Индия) (253 км)
Погода в Chhor (Пакистан) (275 км)
Погода в Bhuj-Rudramata (Gujarat, Индия) (317 км)
Погода в Mandvi (Gujarat, Индия) (318 км)
Погода в Khuzdar (Пакистан) (330 км)

Пояснения к столбцам:

Ветер - указаны скорость ветра в м/с - средняя за 10 мин, порывы в срок и между сроками (в фигурных скобках) и направление, откуда дует ветер: С - северный, СВ - северо-восточный, В - восточный, ЮВ - юго-восточный, Ю - южный, ЮЗ - юго-западный, З - западный, СЗ - северо-западный.
Видимость - горизонтальная дальность видимости в метрах или километрах. При видимости от 1 до 10 км при отсутствии осадков обычно наблюдается дымка, при ухудшении видимости до 1 км и менее - туман. В сухую погоду видимость может ухудшаться дымом, пылью или мглою.
Явления - указаны атмосферные явления, наблюдавшиеся в срок или в последний час перед сроком; фигурными скобками обозначены явления, наблюдавшиеся между сроками (за 1-3 часа до срока); квадратными скобками обозначены град или гололедные отложения с указанием их диаметра в мм.
Облачность - указаны через наклонную черту общая и нижняя облачность в баллах и высота нижней границы облаков в метрах; квадратными скобками обозначены формы облаков: Ci - перистые, Cs - перисто-слоистые, Cc - перисто-кучевые, Ac - высококучевые, As - высокослоистые, Sc - слоисто-кучевые, Ns - слоисто-дождевые, Cu - кучевые, Cb - кучево-дождевые. Подробнее классификацию облаков см. в Атласе облаков (PDF).
T - Температура воздуха - температура, измеренная на высоте 2 м над землей.
Td - Температура точки росы - температура, при понижении до которой содержащийся в воздухе водяной пар достигнет насыщения.
f - Относительная влажность воздуха - влажноcть воздуха, измеренная на высоте 2 м над землей.
Te - Эффективная температура - температура, которую ощущает одетый по сезону человек в тени. Характеристика душности погоды. При расчете учитывается влияние влажности воздуха и скорости ветра на теплоощущения человека.
Tes - Эффективная температура на солнце - температура, которую ощущает человек, с поправкой на солнечный нагрев. Характеристика знойности погоды. Зависит от высоты солнца над горизонтом, облачности и скорости ветра. Ночью, в пасмурную погоду, а также при ветре 12 м/с и более поправка равна нулю.
P - Атмосферное давление - приведенное к уровню моря атмосферное давление.
Po - Атмосферное давление - измеренное на уровне метеостанции атмосферное давление.
Tmin - Минимальная температура - минимум температуры воздуха на высоте 2 м над землей.
Tmax - Максимальная температура - максимум температуры воздуха на высоте 2 м над землей.
R - Количество осадков - Количество выпавших осадков за период времени, мм. При наведении курсора мыши на число - период времени, за который выпало указанное количество осадков.
R24 - Количество осадков - Количество выпавших осадков за 24 часа, мм.
S - Снежный покров - Высота снежного покрова, см. При наведении курсора мыши на число - состояние снежного покрова и степень покрытия местности в баллах.